sat.trackr.live / text

‹ back to catalog

STARLINK-3925

NORAD 52498 · 2022-049AZ

PAYLOAD ACTIVE UNKNOWN

§ Identity

Operator
Country
US
Launch date
2022-05-06
Launch site
AFETR
Launch vehicle
Mass (kg)
RCS (m²)

Purposes: comms

External: N2YO · Heavens-Above · Gunter

§ Orbital elements

Epoch: 2026-05-25T04:00:09.052416Z

Period
95.44 min
Inclination
53.2138°
Eccentricity
0.0001345
Mean motion
15.08817230 rev/d
Perigee alt
538.9 km
Apogee alt
540.7 km
Semi-major
6,917.9 km
B*
2.8006e-4
RAAN
55.7982°
Arg perigee
92.0993°
Mean anomaly
268.0153°
Rev number
22,407

§ Raw data

STARLINK-39251 52498U 22049AZ  26145.16677144  .00004169  00000+0  28006-3 0  99972 52498  53.2138  55.7982 0001345  92.0993 268.0153 15.08817230224078

JSON: /api/v1/satellites/52498 · /tle

For live sub-satellite position, see the globe view (requires WebGL).

§ Visibility from observer

Set your observer location to see the next 7 days of passes ≥ 10°. The values pass through the URL so the page stays shareable.

No JS? Fill the form by hand. The geolocation button needs JavaScript.